Waarnemingen

Advertentie
Mijn weer
Sevilla/San Pablo, Spanje (8391): temperatuur & dauwpunt: 09.11.2018 20:00:00 - 15.11.2018 20:00:00 (CET)Sevilla/San Pablo, Spanje (8391): windsnelheid: 09.11.2018 20:00:00 - 15.11.2018 20:00:00 (CET)Sevilla/San Pablo, Spanje (8391): windrichting: 09.11.2018 20:00:00 - 15.11.2018 20:00:00 (CET)Sevilla/San Pablo, Spanje (8391): luchtdruk: 09.11.2018 20:00:00 - 15.11.2018 20:00:00 (CET)Sevilla/San Pablo, Spanje (8391): zicht: 09.11.2018 20:00:00 - 15.11.2018 20:00:00 (CET)
Datum & Tijd tt [°C] td [°C] ff [km/u] ff [kn] dd ppp [hPa] vv [km]
15.11.2018 20:00:00 16,1 13,8 8 4 ZO 1015,4 -
15.11.2018 19:00:00 18,3 13,8 0 0 N 1015,0 30
15.11.2018 18:00:00 19,9 13,1 4 2 NO 1014,8 -
15.11.2018 17:00:00 20,2 13,4 8 4 NNO 1014,5 -
15.11.2018 16:00:00 20,8 12,0 5 3 WNW 1014,5 30
15.11.2018 15:00:00 21,3 11,3 4 2 NNO 1014,6 -
15.11.2018 14:00:00 20,9 12,4 8 4 NNW 1015,1 -
15.11.2018 13:00:00 19,4 14,0 8 4 NO 1015,3 30
15.11.2018 12:00:00 16,9 13,4 9 5 NO 1016,2 -
15.11.2018 11:00:00 16,6 13,1 8 4 NO 1016,0 -
15.11.2018 10:00:00 15,0 12,9 5 3 N 1015,7 20
15.11.2018 09:00:00 12,7 11,4 4 2 NW 1015,0 -
15.11.2018 08:00:00 12,9 11,6 0 0 N 1014,3 -
15.11.2018 07:00:00 13,1 12,2 11 6 NO 1013,8 30
15.11.2018 06:00:00 13,2 12,3 8 4 NNO 1013,5 -
15.11.2018 05:00:00 13,5 12,2 9 5 N 1013,4 -
15.11.2018 04:00:00 14,2 12,6 13 7 NNO 1013,6 30
15.11.2018 03:00:00 15,3 12,8 15 8 ONO 1013,4 -
15.11.2018 02:00:00 15,5 12,6 15 8 O 1013,6 -
15.11.2018 01:00:00 15,8 13,1 4 2 NNO 1014,4 30
15.11.2018 00:00:00 17,3 12,6 8 4 O 1014,8 -
14.11.2018 23:00:00 18,1 12,5 16 9 O 1014,8 -
14.11.2018 22:00:00 16,6 13,7 13 7 NO 1015,2 30
14.11.2018 21:00:00 16,8 13,7 9 5 O 1015,3 -
14.11.2018 20:00:00 16,6 14,1 11 6 O 1015,1 -
14.11.2018 19:00:00 18,1 14,6 11 6 O 1015,2 30
14.11.2018 18:00:00 20,7 14,3 11 6 ONO 1014,9 -
14.11.2018 17:00:00 21,6 14,6 11 6 NO 1015,1 -
14.11.2018 16:00:00 21,7 13,7 18 10 NO 1015,0 30
14.11.2018 15:00:00 22,0 13,9 18 10 ONO 1015,3 -
14.11.2018 14:00:00 21,4 13,9 21 11 NO 1016,2 -
14.11.2018 13:00:00 20,5 13,7 21 11 NO 1017,0 30
14.11.2018 12:00:00 18,5 12,7 22 12 NO 1017,9 -
14.11.2018 11:00:00 17,8 12,5 18 10 ONO 1018,6 -
14.11.2018 10:00:00 16,1 12,4 18 10 ONO 1018,9 20
14.11.2018 09:00:00 14,7 12,0 15 8 ONO 1018,9 -
14.11.2018 08:00:00 14,0 12,0 8 4 NNO 1018,7 -
14.11.2018 07:00:00 14,1 12,3 16 9 NO 1018,6 25
14.11.2018 06:00:00 13,8 12,4 11 6 ONO 1019,1 -
14.11.2018 05:00:00 14,6 12,6 18 10 ONO 1019,0 -
14.11.2018 04:00:00 15,0 12,9 16 9 ONO 1019,5 20
14.11.2018 03:00:00 15,5 13,3 11 6 O 1020,0 -
14.11.2018 02:00:00 15,9 13,4 15 8 ONO 1020,2 -
14.11.2018 01:00:00 15,6 13,4 11 6 ONO 1020,7 20
14.11.2018 00:00:00 15,3 13,5 8 4 ONO 1020,7 -
13.11.2018 23:00:00 15,2 13,7 8 4 ONO 1020,6 -
13.11.2018 22:00:00 15,5 13,3 11 6 NNO 1020,5 20
13.11.2018 21:00:00 16,4 12,9 11 6 OZO 1020,7 -
13.11.2018 20:00:00 18,1 12,5 8 4 O 1020,5 -
13.11.2018 19:00:00 17,9 14,0 9 5 NO 1020,3 30
13.11.2018 18:00:00 19,5 14,3 9 5 ONO 1019,8 -
13.11.2018 17:00:00 21,4 14,3 13 7 NO 1019,3 -
13.11.2018 16:00:00 21,3 13,5 9 5 ONO 1019,3 20
13.11.2018 15:00:00 20,4 13,9 9 5 ONO 1019,4 -
13.11.2018 14:00:00 19,6 13,5 11 6 ONO 1020,0 -
13.11.2018 13:00:00 17,5 12,9 16 9 ONO 1020,5 20
13.11.2018 12:00:00 17,3 12,7 21 11 NO 1021,1 -
13.11.2018 11:00:00 15,4 13,1 15 8 NO 1021,4 -
13.11.2018 10:00:00 13,6 12,8 13 7 NO 1021,4 15
13.11.2018 09:00:00 12,5 11,9 13 7 ONO 1021,0 -
13.11.2018 08:00:00 12,8 12,0 11 6 NNO 1020,3 -
13.11.2018 07:00:00 13,3 12,7 15 8 NO 1019,7 20
13.11.2018 06:00:00 13,1 12,6 8 4 NO 1019,7 -
13.11.2018 05:00:00 13,3 12,7 4 2 N 1019,7 -
13.11.2018 04:00:00 13,6 13,0 4 2 NNO 1019,6 25
13.11.2018 03:00:00 13,7 13,1 5 3 O 1019,7 -
13.11.2018 02:00:00 13,9 13,3 5 3 NNO 1019,6 -
13.11.2018 01:00:00 14,0 13,2 4 2 ONO 1019,8 20
13.11.2018 00:00:00 13,9 13,1 0 0 N 1019,4 -
12.11.2018 23:00:00 14,6 13,1 0 0 N 1019,1 -
12.11.2018 22:00:00 14,8 13,2 8 4 ZW 1018,7 25
12.11.2018 21:00:00 14,8 13,0 4 2 NO 1018,0 -
12.11.2018 20:00:00 14,7 13,2 8 4 N 1017,6 -
12.11.2018 19:00:00 15,0 13,4 9 5 NNW 1017,4 25
12.11.2018 18:00:00 15,7 13,9 13 7 NNW 1016,8 -
12.11.2018 17:00:00 15,9 14,0 18 10 WNW 1016,4 -
12.11.2018 16:00:00 16,4 14,3 8 4 N 1015,1 25
12.11.2018 15:00:00 16,6 13,9 0 0 N 1015,7 -
12.11.2018 14:00:00 16,4 13,7 8 4 ZO 1015,3 -
12.11.2018 13:00:00 15,9 13,7 5 3 ZZO 1015,8 25
12.11.2018 12:00:00 15,4 13,9 11 6 ZZO 1016,8 -
12.11.2018 11:00:00 14,5 13,5 15 8 OZO 1015,5 -
12.11.2018 10:00:00 14,4 13,3 11 6 ZO 1015,9 10
12.11.2018 09:00:00 14,0 13,4 11 6 O 1014,8 -
12.11.2018 08:00:00 14,0 13,2 5 3 OZO 1013,8 -
12.11.2018 07:00:00 14,1 13,3 11 6 ZO 1013,3 2,0
12.11.2018 06:00:00 14,3 13,3 8 4 ZO 1012,6 -
12.11.2018 05:00:00 15,2 14,1 8 4 Z 1012,6 -
12.11.2018 04:00:00 15,2 14,4 15 8 ZZO 1012,3 6
12.11.2018 03:00:00 15,4 14,3 5 3 Z 1013,2 -
12.11.2018 02:00:00 15,4 14,3 5 3 Z 1013,4 -
12.11.2018 01:00:00 15,2 13,9 0 0 N 1013,6 9
12.11.2018 00:00:00 15,4 13,9 8 4 ZW 1013,3 -
11.11.2018 23:00:00 15,9 14,3 11 6 Z 1013,3 -
11.11.2018 22:00:00 16,2 14,2 11 6 Z 1013,0 5
11.11.2018 21:00:00 16,4 14,1 9 5 ZZW 1013,1 -
11.11.2018 20:00:00 17,5 14,4 11 6 ZW 1013,0 -
11.11.2018 19:00:00 18,0 14,5 15 8 ZW 1012,6 20
11.11.2018 18:00:00 19,5 14,9 22 12 ZW 1012,1 -
11.11.2018 17:00:00 21,5 13,9 16 9 ZW 1011,9 -
11.11.2018 16:00:00 22,9 13,9 13 7 ZW 1012,3 30
11.11.2018 15:00:00 21,7 13,9 11 6 Z 1012,6 -
11.11.2018 14:00:00 21,3 14,0 9 5 ZW 1013,3 -
11.11.2018 13:00:00 21,1 15,1 11 6 Z 1014,7 30
11.11.2018 12:00:00 20,5 15,3 9 5 Z 1015,9 -
11.11.2018 11:00:00 18,3 15,9 9 5 Z 1016,7 -
11.11.2018 10:00:00 17,1 15,8 13 7 ZZO 1017,2 25
11.11.2018 09:00:00 16,1 15,3 9 5 ZZO 1017,0 -
11.11.2018 08:00:00 15,9 15,1 4 2 ZZO 1016,8 -
11.11.2018 07:00:00 16,1 15,1 5 3 Z 1016,9 20
11.11.2018 06:00:00 16,1 15,1 9 5 Z 1016,9 -
11.11.2018 05:00:00 16,1 15,1 11 6 Z 1016,8 -
11.11.2018 04:00:00 16,1 14,8 9 5 Z 1017,3 15
11.11.2018 03:00:00 16,2 14,7 8 4 Z 1017,5 -
11.11.2018 02:00:00 16,6 15,0 11 6 Z 1017,8 -
11.11.2018 01:00:00 16,7 15,1 9 5 Z 1018,4 30
11.11.2018 00:00:00 16,9 14,9 13 7 Z 1018,7 -
10.11.2018 23:00:00 17,1 14,7 9 5 Z 1018,9 -
10.11.2018 22:00:00 17,1 14,7 9 5 Z 1019,0 20
10.11.2018 21:00:00 17,3 14,6 9 5 ZZW 1018,7 -
10.11.2018 20:00:00 17,4 14,5 9 5 ZZW 1018,7 -
10.11.2018 19:00:00 17,6 14,5 11 6 ZZW 1018,5 20
10.11.2018 18:00:00 18,1 14,6 11 6 ZZW 1018,4 -
10.11.2018 17:00:00 18,4 14,3 15 8 Z 1018,4 -
10.11.2018 16:00:00 18,1 14,0 9 5 ZZW 1018,5 20
10.11.2018 15:00:00 17,9 14,1 9 5 ZW 1018,8 -
10.11.2018 14:00:00 17,8 13,9 16 9 ZW 1019,1 -
10.11.2018 13:00:00 16,9 13,5 9 5 ZZW 1020,1 20
10.11.2018 12:00:00 15,6 12,3 9 5 Z 1020,9 -
10.11.2018 11:00:00 14,2 11,6 0 0 N 1021,4 -
10.11.2018 10:00:00 13,1 10,8 2 1 NNW 1021,5 15
10.11.2018 09:00:00 12,5 10,6 5 3 W 1021,1 -
10.11.2018 08:00:00 12,1 10,5 8 4 Z 1020,6 -
10.11.2018 07:00:00 11,9 10,5 0 0 N 1020,9 20
10.11.2018 06:00:00 11,7 10,6 4 2 Z 1020,8 -
10.11.2018 05:00:00 11,4 10,5 0 0 N 1021,3 -
10.11.2018 04:00:00 10,7 9,9 0 0 N 1021,4 20
10.11.2018 03:00:00 10,2 9,3 0 0 N 1021,6 -
10.11.2018 02:00:00 10,7 9,6 0 0 N 1022,3 -
10.11.2018 01:00:00 10,5 9,1 4 2 ZZO 1022,4 30
10.11.2018 00:00:00 11,2 9,6 8 4 Z 1022,9 -
09.11.2018 23:00:00 12,1 9,7 8 4 Z 1023,0 -
09.11.2018 22:00:00 12,6 9,8 9 5 Z 1023,3 30
09.11.2018 21:00:00 14,3 9,5 9 5 WZW 1023,2 -
09.11.2018 20:00:00 15,0 9,1 16 9 WZW 1023,2 -

tt = temperatuur
td = dauwpunt
ff = windsnelheid
dd = windrichting
ppp = luchtdruk
vv = zicht

Weerstations in de omgeving